Regional Weather Roundup
Issued by NWS

Home | Current Version | Previous Version | Text Only | Print | Product List | Glossary Off
Versions: 1 2 3 4 5 6 7 8 9 10 11 12 13 14 15 16 17 18 19 20 21 22 23 24 25 26 27 28 29 30 31 32 33 34 35 36 37 38 39 40 41 42 43 44 45 46 47 48 49 50

000
ASUS44 KMEG 211810
RWRTN
TENNESSEE HOURLY STATE WEATHER ROUNDUP
NATIONAL WEATHER SERVICE MEMPHIS TN
100 PM CDT TUE OCT 21 2014

TNZ002-004-019-021-049-052-054-088>092-211900-
WEST TENNESSEE

CITY           SKY/WX    TMP DP  RH WIND       PRES   REMARKS
MEMPHIS INTL   SUNNY     75  45  34 VRB3      30.09F
NWS MEMPHIS      N/A     73 N/A N/A MISG        N/A
JACKSON        SUNNY     73  45  36 N12       30.08F
DYERSBURG      SUNNY     72  43  35 N9        30.10F
UNION CITY     SUNNY     70  45  40 NW8       30.07F
PARIS          SUNNY     70  45  40 NW9       30.08F
HUNTINGDON     SUNNY     70  42  36 N8        30.07F
LEXINGTON      SUNNY     70  45  40 NW10      30.06F
SAVANNAH       SUNNY     72  50  46 N10       30.07F
$$

TNZ008-025-027-028-033-062-065-066-211900-
NORTH MIDDLE TENNESSEE

CITY           SKY/WX    TMP DP  RH WIND       PRES   REMARKS
NASHVILLE      MOSUNNY   71  45  39 NW12G17   30.05F
CLARKSVILLE    SUNNY     70  46  42 N9G20     30.05F
SMYRNA         MOSUNNY   70  48  45 NW8G20    30.06F
COOKEVILLE     MOSUNNY   68  46  45 NW12      30.04F
CROSSVILLE     SUNNY     64  41  42 N13       30.05F
$$

TNZ061-075-076-078-094-096-097-211900-
SOUTH MIDDLE TENNESSEE

CITY           SKY/WX    TMP DP  RH WIND       PRES   REMARKS
TULLAHOMA      SUNNY     68  45  42 NW14      30.06F
WINCHESTER     MOSUNNY   66  48  52 N5        30.05F
MCMINNVILLE    SUNNY     66  48  52 CALM      30.05F
COLUMBIA       SUNNY     70  48  46 VRB5      30.05F
SHELBYVILLE    SUNNY     70  48  46 VRB7      30.06F
$$

TNZ017-018-042-046-047-211900-
NORTHEAST TENNESSEE

CITY           SKY/WX    TMP DP  RH WIND       PRES   REMARKS
TRI CITIES     PTSUNNY   60  43  53 NW14      29.97F
ELIZABETHTON   MOCLDY    61  45  55 W12       29.97S
$$

TNZ012-013-036-069-073-074-211900-
CENTRAL EAST TENNESSEE

CITY           SKY/WX    TMP DP  RH WIND       PRES   REMARKS
KNOXVILLE      MOSUNNY   66  44  45 NW10      30.00F
OAK RIDGE      PTSUNNY   69  43  38 CALM      30.02F
GATLINBURG     PTCLDY    64  43  45 NW9       30.00F
MORRISTOWN     MOCLDY    64  46  52 NW9       30.01S
$$

TNZ083-085-099-211900-
SOUTHEAST TENNESSEE

CITY           SKY/WX    TMP DP  RH WIND       PRES   REMARKS
CHATTANOOGA    MOSUNNY   71  47  42 N10       30.02F
$$

SKY/WX REPORTED AS FAIR MEANS FEW OR NO CLOUDS BELOW
12 THOUSAND FEET.




USA.gov is the U.S. government's official web portal to all federal, state and local government web resources and services.